Satellite: OKEAN-4
Catalog number: 23317
Epoch time:      09267.77595925
Element set:      26
Inclination:      082.5380 deg
RA of node:       241.5409 deg
Eccentricity:    0.0023559
Arg of perigee:   039.8316 deg
Mean anomaly:     320.4636 deg
Mean motion:   14.82722307 rev/day
Decay rate:       2.97e-06 rev/day^2
Epoch rev:           80712
Checksum:              312

Satellite: NOAA-14
Catalog number: 23455
Epoch time:      09266.82742834
Element set:    0768
Inclination:      098.9025 deg
RA of node:       344.1283 deg
Eccentricity:    0.0008554
Arg of perigee:   270.4845 deg
Mean anomaly:     089.5325 deg
Mean motion:   14.13770769 rev/day
Decay rate:       2.07e-06 rev/day^2
Epoch rev:           75986
Checksum:              347

Satellite: NOAA-15
Catalog number: 25338
Epoch time:      09266.72094312
Element set:    0092
Inclination:      098.5942 deg
RA of node:       253.8141 deg
Eccentricity:    0.0011485
Arg of perigee:   127.2676 deg
Mean anomaly:     232.9557 deg
Mean motion:   14.24785163 rev/day
Decay rate:        8.4e-07 rev/day^2
Epoch rev:           59080
Checksum:              319

Satellite: RESURS
Catalog number: 25394
Epoch time:      09267.71243262
Element set:     317
Inclination:      098.3338 deg
RA of node:       294.9638 deg
Eccentricity:    0.0000930
Arg of perigee:   319.6791 deg
Mean anomaly:     040.4319 deg
Mean motion:   14.24188461 rev/day
Decay rate:       -5.1e-07 rev/day^2
Epoch rev:           58256
Checksum:              311

Satellite: FENGYUN1
Catalog number: 25730
Epoch time:      09266.92076655
Element set:    0860
Inclination:      098.7619 deg
RA of node:       234.1515 deg
Eccentricity:    0.0021629
Arg of perigee:   299.4853 deg
Mean anomaly:     060.4159 deg
Mean motion:   14.07986645 rev/day
Decay rate:       2.82e-06 rev/day^2
Epoch rev:           53421
Checksum:              327

Satellite: OKEAN-0
Catalog number: 25860
Epoch time:      09267.58157857
Element set:     792
Inclination:      097.7981 deg
RA of node:       244.8725 deg
Eccentricity:    0.0000768
Arg of perigee:   104.1782 deg
Mean anomaly:     255.9507 deg
Mean motion:   14.73588373 rev/day
Decay rate:        3.0e-08 rev/day^2
Epoch rev:           54778
Checksum:              354

Satellite: NOAA-16
Catalog number: 26536
Epoch time:      09266.68098490
Element set:    0571
Inclination:      099.1801 deg
RA of node:       272.7492 deg
Eccentricity:    0.0010719
Arg of perigee:   010.0063 deg
Mean anomaly:     350.1301 deg
Mean motion:   14.12532008 rev/day
Decay rate:      -2.35e-06 rev/day^2
Epoch rev:           46420
Checksum:              274

Satellite: NOAA-17
Catalog number: 27453
Epoch time:      09266.85735451
Element set:    0568
Inclination:      098.4727 deg
RA of node:       322.4769 deg
Eccentricity:    0.0011662
Arg of perigee:   190.8164 deg
Mean anomaly:     169.2754 deg
Mean motion:   14.24092178 rev/day
Decay rate:       -5.8e-07 rev/day^2
Epoch rev:           37679
Checksum:              353

Satellite: NOAA-18
Catalog number: 28654
Epoch time:      09266.87792339
Element set:    0055
Inclination:      098.9150 deg
RA of node:       209.3834 deg
Eccentricity:    0.0015344
Arg of perigee:   084.3210 deg
Mean anomaly:     275.9708 deg
Mean motion:   14.11288249 rev/day
Decay rate:        7.0e-07 rev/day^2
Epoch rev:           22387
Checksum:              329

Satellite: NOAA-19
Catalog number: 33591
Epoch time:      09266.87910306
Element set:    0260
Inclination:      098.7548 deg
RA of node:       210.1060 deg
Eccentricity:    0.0013737
Arg of perigee:   328.0292 deg
Mean anomaly:     032.0041 deg
Mean motion:   14.10987920 rev/day
Decay rate:        1.5e-07 rev/day^2
Epoch rev:           03235
Checksum:              275

/EX
SB KEPS @ AMSAT  $ORB09267.M
Orbital Elements  09267.MISC

HR AMSAT ORBITAL ELEMENTS FOR MANNED AND MISCELLANEOUS SATELLITES
FROM WA5QGD FORT WORTH,TX September 24, 2009
Send Subscribe/unsubscribe to KEPS at 
http://www.amsat.org/mailman/listinfo/keps
BID: ORB09267.M
TO ALL RADIO AMATEURS BT

Satellite: HUBBLE
Catalog number: 20580
Epoch time:      09264.20478514
Element set:    0451
Inclination:      028.4698 deg
RA of node:       195.6356 deg
Eccentricity:    0.0003465
Arg of perigee:   221.7899 deg
Mean anomaly:     138.2394 deg
Mean motion:   15.00831186 rev/day
Decay rate:       3.13e-06 rev/day^2
Epoch rev:           86429
Checksum:              313

Satellite: ISS
Catalog number: 25544
Epoch time:      09266.84340728
Element set:    0662
Inclination:      051.6391 deg
RA of node:       160.3470 deg
Eccentricity:    0.0009216
Arg of perigee:   122.3268 deg
Mean anomaly:     282.5449 deg
Mean motion:   15.74306025 rev/day
Decay rate:     1.1653e-04 rev/day^2
Epoch rev:           62149
Checksum:              293

Satellite: CO-58
Catalog number: 28895
Epoch time:      09266.69883262
Element set:     402
Inclination:      098.0434 deg
RA of node:       154.4800 deg
Eccentricity:    0.0018743
Arg of perigee:   042.3067 deg
Mean anomaly:     317.9577 deg
Mean motion:   14.59796950 rev/day
Decay rate:       1.48e-06 rev/day^2
Epoch rev:           20810
Checksum:              341

